Location: Kershaw
(34.5481°N, 80.5823°W)
Time: 09:14:04
(UTC+00:00)

Altair - Pass Details

Date: 08 October 2022
Orbit: 1501 x 1682 km, 47.2° (Epoch: 30 November)

Event Time Altitude Azimuth Distance (km) Brightness Sun altitude
Rises 14:34:39 0° 304° (NW) 4,878 9.6 35.4°
Reaches altitude 10° 14:37:47 10° 307° (NW) 3,907 9.2 35.9°
Maximum altitude 14:47:54 76° 33° (NNE) 1,720 8.4 37.4°
Drops below altitude 10° 14:58:04 10° 119° (ESE) 3,932 10.8 38.9°
Sets 15:01:14 0° 121° (ESE) 4,909 11.0 39.3°
